Weather History for Rhodes, Greece

Change the Weather History Date:

Sunday, October 30, 2011

  Actual Average Record
Temperature  
Mean Temperature 62 °F -  
Max Temperature 69 °F 68 °F 77 °F (1999)
Min Temperature 54 °F 56 °F 48 °F (2003)
Degree Days  
Heating Degree Days 4    
Growing Degree Days 12 (Base 50)    
Moisture  
Dew Point 45 °F    
Average Humidity 53    
Maximum Humidity 77    
Minimum Humidity 27    
Precipitation  
Precipitation 0.00 in 0.12 in - ()
Sea Level Pressure  
Sea Level Pressure 29.98 in    
Wind  
Wind Speed 3 mph ()    
Max Wind Speed 8 mph    
Max Gust Speed -    
Visibility 6.0 miles    
Events      
Averages and records for this station are not official NWS values.
T = Trace of Precipitation, MM = Missing Value Source: Averaged Metar Reports

Daily Weather History Graph

Daily Weather History Graph

Search for Another Location

Airport:

Trip Planner

Search our weather history database for the weather conditions in past years. The results will help you decide how hot, cold, wet, or windy it might be!

Date:

Astronomy

Oct. 30, 2011 Rise Set
Actual Time 6:28 AM EET 5:13 PM EET
Civil Twilight 6:01 AM EET 5:40 PM EET
Nautical Twilight 5:31 AM EET 6:10 PM EET
Astronomical Twilight 5:01 AM EET 6:40 PM EET
Moon 10:24 AM EET (10/30) 8:25 PM EET (10/30)
Length of Visible Light 11h 38m
Length of Day
10h 45m
Waxing Crescent, 18% of the Moon is Illuminated
Oct 30
Waxing Crescent
Nov 2
First Quarter
Nov 10
Full
Nov 18
Last Quarter
Nov 25
New

Hourly Weather History & Observations

Time (EET) Temp. Dew Point Humidity Pressure Visibility Wind Dir Wind Speed Gust Speed Precip Events Conditions
12:20 AM 64.4 °F 53.6 °F 68% 29.98 in - West 8.1 mph - N/A   Clear
12:50 AM 60.8 °F 50.0 °F 68% 29.98 in - Calm Calm - N/A   Clear
1:20 AM 60.8 °F 50.0 °F 68% 29.98 in - Calm Calm - N/A   Clear
1:50 AM 59.0 °F 48.2 °F 67% 29.98 in - Calm Calm - N/A   Clear
2:20 AM 59.0 °F 48.2 °F 67% 29.98 in - Calm Calm - N/A   Clear
2:50 AM 55.4 °F 48.2 °F 77% 29.98 in - Calm Calm - N/A   Clear
3:00 AM 56 °F 48 °F 66% 29.98 in 6 mi Calm Calm - -  
3:20 AM 57.2 °F 46.4 °F 67% 29.98 in - Calm Calm - N/A   Clear
3:50 AM 57.2 °F 46.4 °F 67% 29.98 in - Calm Calm - N/A   Clear
3:50 AM 55.4 °F 48.2 °F 77% 29.95 in - Calm Calm - N/A   Clear
4:50 AM 55.4 °F 44.6 °F 67% 29.95 in - Calm Calm - N/A   Clear
5:20 AM 55.4 °F 44.6 °F 67% 29.95 in - Calm Calm - N/A   Clear
5:50 AM 55.4 °F 44.6 °F 67% 29.95 in - Calm Calm - N/A   Clear
6:50 AM 55.4 °F 44.6 °F 67% 29.95 in - Calm Calm - N/A   Clear
7:20 AM 57.2 °F 42.8 °F 59% 29.95 in - Calm Calm - N/A   Clear
7:50 AM 62.6 °F 44.6 °F 52% 29.98 in - SSW 8.1 mph - N/A   Clear
8:00 AM 63 °F 45 °F 40% 29.98 in 6 mi SSW 8.1 mph - -  
8:20 AM 62.6 °F 44.6 °F 52% 29.98 in - SSW 8.1 mph - N/A   Clear
8:50 AM 66.2 °F 41.0 °F 40% 29.98 in - NW 6.9 mph - N/A   Clear
9:20 AM 66.2 °F 41.0 °F 40% 29.98 in - NW 6.9 mph - N/A   Clear
9:50 AM 68.0 °F 41.0 °F 37% 29.98 in - WNW 6.9 mph - N/A   Clear
10:20 AM 68.0 °F 41.0 °F 37% 29.98 in - WNW 6.9 mph - N/A   Clear
10:50 AM 68.0 °F 46.4 °F 46% 30.01 in - WNW 4.6 mph - N/A   Clear
11:20 AM 68.0 °F 46.4 °F 46% 30.01 in - Variable 3.5 mph - N/A   Clear
11:50 AM 68.0 °F 46.4 °F 46% 29.98 in - Variable 3.5 mph - N/A   Clear
12:20 PM 68.0 °F 46.4 °F 46% 29.98 in - West 5.8 mph - N/A   Clear
12:50 PM 69.8 °F 44.6 °F 40% 29.98 in - WSW 6.9 mph - N/A   Clear
1:20 PM 69.8 °F 44.6 °F 40% 29.98 in - West 5.8 mph - N/A   Clear
1:50 PM 69.8 °F 42.8 °F 38% 29.98 in - West 5.8 mph - N/A   Clear
2:00 PM 69 °F 43 °F 27% 29.99 in 6 mi West 5.8 mph - -  
2:20 PM 69.8 °F 42.8 °F 38% 29.98 in - West 5.8 mph - N/A   Clear
2:50 PM 69.8 °F 42.8 °F 38% 29.98 in - West 8.1 mph - N/A   Clear
3:20 PM 69.8 °F 42.8 °F 38% 29.98 in - West 8.1 mph - N/A   Clear
3:50 PM 68.0 °F 42.8 °F 40% 29.98 in - WSW 8.1 mph - N/A   Clear
4:20 PM 68.0 °F 42.8 °F 40% 29.98 in - WSW 8.1 mph - N/A   Clear
4:50 PM 66.2 °F 44.6 °F 46% 29.98 in - WSW 5.8 mph - N/A   Clear
5:20 PM 66.2 °F 44.6 °F 46% 29.98 in - WSW 5.8 mph - N/A   Clear
5:50 PM 64.4 °F 44.6 °F 49% 29.98 in - SW 5.8 mph - N/A   Clear
6:20 PM 64.4 °F 44.6 °F 49% 29.98 in - SW 5.8 mph - N/A   Clear
6:50 PM 64.4 °F 44.6 °F 49% 29.98 in - WSW 5.8 mph - N/A   Clear
7:20 PM 64.4 °F 44.6 °F 49% 29.98 in - West 8.1 mph - N/A   Clear
7:50 PM 62.6 °F 44.6 °F 52% 29.98 in - WSW 6.9 mph - N/A   Clear
8:00 PM 63 °F 44 °F 38% 29.99 in 6 mi WSW 6.9 mph - -  
8:20 PM 62.6 °F 44.6 °F 52% 29.98 in - WSW 6.9 mph - N/A   Clear
8:50 PM 60.8 °F 44.6 °F 55% 29.98 in - SW 4.6 mph - N/A   Clear
9:20 PM 60.8 °F 44.6 °F 55% 29.98 in - Calm Calm - N/A   Clear
9:50 PM 59.0 °F 48.2 °F 67% 30.01 in - Calm Calm - N/A   Clear
10:20 PM 59.0 °F 48.2 °F 67% 30.01 in - Calm Calm - N/A   Clear
10:50 PM 57.2 °F 46.4 °F 67% 30.01 in - Calm Calm - N/A   Clear